Weather reports worldwide

Advertisment
Landivisiau, France (7106): temperature & dewpoint: 19.03.2019 07:00:00 - 25.03.2019 07:00:00 (CET)Landivisiau, France (7106): temperature 5cm: 19.03.2019 07:00:00 - 25.03.2019 07:00:00 (CET)Landivisiau, France (7106): temperature -20cm: 19.03.2019 07:00:00 - 25.03.2019 07:00:00 (CET)Landivisiau, France (7106): wind speed & gusts: 19.03.2019 07:00:00 - 25.03.2019 07:00:00 (CET)Landivisiau, France (7106): wind direction: 19.03.2019 07:00:00 - 25.03.2019 07:00:00 (CET)Landivisiau, France (7106): reduced air pressure: 19.03.2019 07:00:00 - 25.03.2019 07:00:00 (CET)Landivisiau, France (7106): visibility: 19.03.2019 07:00:00 - 25.03.2019 07:00:00 (CET)Landivisiau, France (7106): precipitation: 19.03.2019 07:00:00 - 25.03.2019 07:00:00 (CET)
Date & Time tt [°C] td [°C] tt 5cm [°C] tt -20cm [°C] ff [km/h] ff [kn] fx [km/h] fx [kn] dd ppp [hPa] vv [km] rr [mm]
25.03.2019 07:00:00 4,1 3,7 0,1 10,2 10 5 16 9 NNE 1033,0 16 0,0
25.03.2019 06:00:00 3,7 3,1 -0,3 10,3 11 6 18 10 NNE 1032,8 19 0,0
25.03.2019 05:00:00 4,5 3,8 0,6 10,4 6 3 21 11 N 1032,6 20 0,2
25.03.2019 04:00:00 4,5 3,8 0,5 10,5 14 7 18 10 NNE 1032,8 41 0,0
25.03.2019 03:00:00 4,3 3,1 0,9 10,6 14 7 21 11 NNE 1033,1 41 0,0
25.03.2019 02:00:00 4,3 3,0 0,6 10,7 11 6 18 10 N 1033,1 47 0,0
25.03.2019 01:00:00 4,2 2,7 1,5 10,8 11 6 18 10 N 1033,5 47 0,0
25.03.2019 00:00:00 4,4 2,7 1,7 10,9 11 6 18 10 N 1033,5 43 0,0
24.03.2019 23:00:00 5,1 3,6 2,4 10,9 11 6 16 9 N 1033,4 34 0,0
24.03.2019 22:00:00 5,8 4,4 3,6 10,9 11 6 16 9 N 1033,5 18 0,0
24.03.2019 21:00:00 7,9 6,5 6,7 10,9 8 4 16 9 N 1033,1 11 0,0
24.03.2019 20:00:00 7,8 6,6 6,1 10,9 9 5 24 13 N 1032,9 11 0,0
24.03.2019 19:00:00 8,9 6,9 8,8 10,9 15 8 26 14 NNE 1032,5 14 0,0
24.03.2019 18:00:00 9,9 6,6 11,1 10,8 19 11 28 15 NNE 1032,1 18 0,0
24.03.2019 17:00:00 11,2 7,3 13,1 10,7 19 10 34 18 NNE 1031,8 19 0,0
24.03.2019 16:00:00 11,8 7,1 12,9 10,6 22 12 35 19 NNE 1031,7 20 0,0
24.03.2019 15:00:00 12,1 6,6 13,9 10,5 17 9 35 19 NE 1031,9 20 0,0
24.03.2019 14:00:00 11,9 7,4 13,7 10,4 23 12 34 18 NNE 1032,2 20 0,0
24.03.2019 13:00:00 12,3 7,8 12,8 10,3 21 11 31 17 NNE 1032,0 20 0,0
24.03.2019 12:00:00 11,7 8,9 11,3 10,3 15 8 24 13 NE 1032,0 10 0,0
24.03.2019 11:00:00 10,1 8,9 11,1 10,3 8 4 16 9 NNE 1032,0 6 0,0
24.03.2019 10:00:00 8,6 8,5 7,8 10,3 8 4 13 7 NNE 1032,2 2,2 0,0
24.03.2019 09:00:00 7,1 7,0 6,7 10,4 7 4 13 7 NNE 1031,9 2,2 0,0
24.03.2019 08:00:00 6,3 6,3 5,9 10,4 4 2 8 4 NNE 1031,0 1,6 0,0
24.03.2019 07:00:00 5,9 5,9 5,7 10,5 5 3 15 8 E 1030,3 0,6 0,0
24.03.2019 06:00:00 6,0 5,9 6,0 10,5 13 7 18 10 E 1030,2 0,2 0,0
24.03.2019 05:00:00 6,0 5,9 5,7 10,6 11 6 16 9 E 1030,4 0,1 0,0
24.03.2019 04:00:00 5,8 5,5 4,8 10,7 9 5 13 7 ENE 1030,3 0,1 0,0
24.03.2019 03:00:00 6,5 6,1 5,8 10,7 9 5 13 7 ENE 1030,2 1,8 0,0
24.03.2019 02:00:00 7,2 6,5 6,7 10,8 10 5 16 9 E 1030,1 2,8 0,0
24.03.2019 01:00:00 7,6 6,7 6,8 10,9 10 6 21 11 ENE 1030,0 3,5 0,0
24.03.2019 00:00:00 8,4 7,5 8,0 10,9 13 7 18 10 ENE 1030,1 4,1 0,0
23.03.2019 23:00:00 8,6 7,5 8,1 10,9 11 6 21 11 ENE 1030,2 4,2 0,0
23.03.2019 22:00:00 8,5 7,3 8,0 11,0 8 5 16 9 ENE 1030,3 4,8 0,0
23.03.2019 21:00:00 8,7 7,0 8,2 11,0 10 5 21 11 ENE 1030,1 7 0,0
23.03.2019 20:00:00 9,0 7,3 8,5 10,9 14 8 29 16 NE 1029,7 8 0,0
23.03.2019 19:00:00 10,1 7,2 9,6 10,9 19 11 31 17 NE 1029,0 16 0,0
23.03.2019 18:00:00 11,6 7,9 11,9 10,8 22 12 35 19 NE 1028,6 20 0,0
23.03.2019 17:00:00 13,9 8,7 13,9 10,7 20 11 34 18 NE 1028,5 19 0,0
23.03.2019 16:00:00 14,2 9,2 14,8 10,6 22 12 31 17 NE 1028,7 15 0,0
23.03.2019 15:00:00 14,7 8,0 15,1 10,5 18 10 31 17 NE 1029,0 15 0,0
23.03.2019 14:00:00 14,4 9,0 15,0 10,4 19 10 31 17 NE 1029,4 11 0,0
23.03.2019 13:00:00 13,2 9,6 13,3 10,3 18 10 28 15 E 1029,9 7 0,0
23.03.2019 12:00:00 11,3 8,7 13,6 10,2 15 8 26 14 ENE 1030,4 6 0,0
23.03.2019 11:00:00 8,6 8,2 9,6 10,3 18 10 24 13 NE 1030,9 4,0 0,0
23.03.2019 10:00:00 7,8 7,4 9,9 10,3 15 8 18 10 NNE 1030,9 1,6 0,0
23.03.2019 09:00:00 7,5 7,5 5,9 10,4 6 3 13 7 ENE 1030,6 2,6 0,0
23.03.2019 08:00:00 5,8 5,8 5,4 10,5 9 5 15 8 ESE 1030,2 0,2 0,0
23.03.2019 07:00:00 6,5 6,5 5,1 10,6 9 5 15 8 ENE 1030,1 0,3 0,0
23.03.2019 06:00:00 6,1 6,1 1,6 10,7 5 3 9 5 NE 1030,0 0,1 0,2
23.03.2019 05:00:00 3,6 3,5 1,7 10,8 7 4 9 5 N 1030,1 0,1 0,0
23.03.2019 04:00:00 5,9 5,8 3,2 10,8 10 6 15 8 E 1029,5 0,3 0,0
23.03.2019 03:00:00 6,1 6,1 2,4 10,9 6 3 8 4 E 1029,7 0,1 0,0
23.03.2019 02:00:00 6,7 6,6 4,9 11,0 3 1 11 6 ENE 1029,9 0,1 0,0
23.03.2019 01:00:00 8,4 8,3 5,9 11,0 6 4 11 6 NNE 1029,9 0,2 0,0
23.03.2019 00:00:00 7,1 7,0 2,5 11,1 7 4 11 6 NNE 1030,3 0,1 0,0
22.03.2019 23:00:00 6,8 6,5 3,0 11,1 4 2 5 3 N 1030,3 0,1 0,0
22.03.2019 22:00:00 8,1 7,7 4,7 11,1 5 3 11 6 N 1030,0 0,4 0,0
22.03.2019 21:00:00 8,7 8,1 7,0 11,1 5 3 13 7 NNW 1029,7 2,9 0,0
22.03.2019 20:00:00 9,4 7,7 8,2 11,0 9 5 15 8 N 1029,2 8 0,0
22.03.2019 19:00:00 10,8 8,0 10,5 10,9 11 6 18 10 N 1028,4 15 0,0
22.03.2019 18:00:00 11,9 8,4 12,7 10,8 14 8 18 10 NNW 1028,1 16 0,0
22.03.2019 17:00:00 13,4 8,7 15,2 10,6 15 8 31 17 NNW 1027,9 13 0,0
22.03.2019 16:00:00 15,9 9,8 16,6 10,5 13 7 18 10 NW 1027,8 19 0,0
22.03.2019 15:00:00 15,5 8,0 16,9 10,3 10 6 18 10 W 1028,0 19 0,0
22.03.2019 14:00:00 16,0 8,0 16,5 10,1 5 3 15 8 S 1028,2 7 0,0
22.03.2019 13:00:00 15,2 8,9 17,4 9,9 6 3 11 6 W 1028,7 15 0,0
22.03.2019 12:00:00 14,5 8,7 19,1 9,8 4 2 11 6 - 1028,9 10 0,0
22.03.2019 11:00:00 13,5 7,9 16,8 9,8 3 1 9 5 SSW 1029,1 16 0,0
22.03.2019 10:00:00 11,0 7,9 8,8 9,8 5 3 9 5 SSE 1029,2 15 0,0
22.03.2019 09:00:00 7,6 6,5 7,3 9,9 4 2 9 5 E 1029,4 10 0,0
22.03.2019 08:00:00 6,6 6,0 4,5 9,9 5 3 13 7 ESE 1029,3 8 0,0
22.03.2019 07:00:00 5,8 5,1 4,5 10,0 8 4 9 5 SE 1029,0 8 0,0
22.03.2019 06:00:00 6,6 5,5 5,4 10,0 4 2 8 4 ESE 1029,1 10 0,0
22.03.2019 05:00:00 6,6 6,2 4,7 10,1 4 2 5 3 NE 1029,3 11 0,0
22.03.2019 04:00:00 5,2 4,6 2,0 10,1 4 2 9 5 NE 1030,0 8 0,0
22.03.2019 03:00:00 5,9 5,2 2,3 10,2 3 2 5 3 NNW 1030,0 4,3 0,0
22.03.2019 02:00:00 7,2 5,5 4,1 10,2 4 2 18 10 SSE 1030,1 26 0,0
22.03.2019 01:00:00 8,5 6,1 7,5 10,3 13 7 24 13 SE 1030,4 44 0,0
22.03.2019 00:00:00 9,3 6,6 9,0 10,3 16 9 21 11 SE 1031,4 41 0,0
21.03.2019 23:00:00 9,7 7,5 9,5 10,3 10 5 15 8 E 1031,5 26 0,0
21.03.2019 22:00:00 9,8 8,1 9,5 10,3 10 5 13 7 ENE 1031,9 19 0,0
21.03.2019 21:00:00 9,7 8,5 9,5 10,3 7 4 13 7 ENE 1031,7 15 0,0
21.03.2019 20:00:00 9,9 8,2 9,6 10,3 9 5 15 8 NE 1032,0 10 0,0
21.03.2019 19:00:00 10,2 7,8 9,9 10,3 10 6 18 10 NE 1032,0 35 0,0
21.03.2019 18:00:00 10,5 7,6 10,6 10,2 10 5 18 10 ENE 1032,1 43 0,0
21.03.2019 17:00:00 11,0 8,7 11,4 10,2 10 5 16 9 NE 1032,3 25 0,0
21.03.2019 16:00:00 11,3 8,5 11,6 10,1 10 5 15 8 ENE 1032,8 20 0,0
21.03.2019 15:00:00 12,1 7,4 12,9 10,0 3 2 8 4 ESE 1033,4 12 0,0
21.03.2019 14:00:00 12,3 7,0 13,6 9,9 5 3 13 7 ESE 1034,3 19 0,0
21.03.2019 13:00:00 12,2 6,9 13,5 9,9 4 2 8 4 ESE 1034,7 56 0,0
21.03.2019 12:00:00 12,7 7,6 - - 4 2 8 4 - 1034,8 10 0,0
21.03.2019 11:00:00 11,7 8,7 12,0 9,8 3 2 9 5 NE 1035,2 18 0,0
21.03.2019 10:00:00 10,3 8,7 10,2 9,8 5 3 9 5 E 1035,2 18 0,0
21.03.2019 09:00:00 9,4 8,8 9,2 9,8 0 0 5 3 N 1035,2 9 0,0
21.03.2019 08:00:00 9,1 8,6 8,8 9,8 5 3 8 4 ESE 1034,9 5 0,0
21.03.2019 07:00:00 9,0 8,5 8,6 9,8 3 2 8 4 E 1034,5 9 0,0
21.03.2019 06:00:00 9,0 8,5 8,7 9,8 0 0 11 6 N 1034,3 7 0,0
21.03.2019 05:00:00 9,1 8,6 8,9 9,8 8 4 9 5 WNW 1034,1 4,8 0,0
21.03.2019 04:00:00 9,2 8,6 9,0 9,9 0 0 5 3 N 1034,4 6 0,0
21.03.2019 03:00:00 9,4 8,8 8,9 9,9 4 2 8 4 W 1034,7 8 0,0
21.03.2019 02:00:00 9,4 8,5 9,0 9,9 5 3 11 6 WNW 1035,0 14 0,0
21.03.2019 01:00:00 9,7 7,8 8,3 9,9 6 4 9 5 SW 1035,3 51 0,0
21.03.2019 00:00:00 9,4 8,5 9,1 9,9 5 3 13 7 WSW 1035,5 39 0,0
20.03.2019 23:00:00 9,5 8,7 9,1 9,9 6 3 11 6 WSW 1035,6 9 0,0
20.03.2019 22:00:00 9,8 8,9 9,5 9,8 9 5 15 8 SW 1035,6 19 0,0
20.03.2019 21:00:00 10,1 9,2 9,9 9,8 11 6 15 8 WSW 1035,3 20 0,0
20.03.2019 20:00:00 10,5 9,4 10,2 9,8 7 4 16 9 WSW 1034,7 23 0,0
20.03.2019 19:00:00 11,0 9,4 10,8 9,7 11 6 16 9 WSW 1034,5 42 0,0
20.03.2019 18:00:00 11,5 9,4 11,4 9,7 11 6 16 9 WSW 1034,3 10 0,0
20.03.2019 17:00:00 11,3 9,7 10,8 9,6 11 6 18 10 WSW 1034,1 10 0,0
20.03.2019 16:00:00 11,0 9,7 10,8 9,5 13 7 22 12 W 1034,3 17 0,0
20.03.2019 15:00:00 11,6 9,8 - - 13 7 18 10 WSW 1034,7 8 0,0
20.03.2019 14:00:00 11,9 9,6 12,6 9,3 9 5 21 11 SSW 1034,9 17 0,0
20.03.2019 13:00:00 12,3 9,3 14,1 9,2 13 7 21 11 SW 1035,0 50 0,0
20.03.2019 12:00:00 11,7 9,9 12,9 9,1 14 8 22 12 SW 1035,0 43 0,0
20.03.2019 11:00:00 10,5 10,3 11,2 9,1 14 8 22 12 SW 1035,0 17 0,0
20.03.2019 10:00:00 9,6 9,5 9,7 9,1 11 6 18 10 SW 1034,9 5 0,0
20.03.2019 09:00:00 9,0 8,9 8,6 9,1 11 6 16 9 SSW 1034,6 1,7 0,0
20.03.2019 08:00:00 8,4 8,3 8,0 9,1 8 5 15 8 SSW 1033,8 0,4 0,0
20.03.2019 07:00:00 8,0 7,9 8,0 9,2 4 2 15 8 SSW 1033,5 1,0 0,0
20.03.2019 06:00:00 8,0 7,9 7,5 9,2 11 6 18 10 SW 1032,8 0,5 0,0
20.03.2019 05:00:00 7,6 7,5 7,4 9,2 11 6 16 9 SSW 1032,9 1,9 0,0
20.03.2019 04:00:00 7,4 7,1 6,5 9,2 8 4 15 8 SW 1033,2 3,0 0,0
20.03.2019 03:00:00 6,5 6,2 5,4 9,3 9 5 16 9 SSW 1033,2 8 0,0
20.03.2019 02:00:00 6,4 6,1 5,5 9,4 10 6 15 8 SSW 1033,4 8 0,0
20.03.2019 01:00:00 6,1 5,8 2,6 9,4 6 4 13 7 SW 1033,6 8 0,0
20.03.2019 00:00:00 6,0 5,4 2,9 9,5 9 5 13 7 SSW 1033,6 8 0,0
19.03.2019 23:00:00 6,3 5,6 3,6 9,5 9 5 13 7 SSW 1033,6 15 0,0
19.03.2019 22:00:00 7,4 6,3 4,5 9,6 5 3 8 4 W 1033,4 19 0,0
19.03.2019 21:00:00 7,4 5,7 5,1 9,6 5 3 5 3 NW 1032,7 10 0,0
19.03.2019 20:00:00 8,0 6,0 4,6 9,5 0 0 8 4 N 1031,8 50 0,0
19.03.2019 19:00:00 9,5 6,6 9,6 9,5 5 3 13 7 N 1031,1 50 0,0
19.03.2019 18:00:00 10,4 7,1 10,5 9,4 7 4 18 10 NNW 1030,9 53 0,0
19.03.2019 17:00:00 10,2 7,6 10,0 9,4 13 7 24 13 NNW 1030,6 10 0,0
19.03.2019 16:00:00 10,5 7,7 10,5 9,3 13 7 22 12 NNW 1030,6 50 0,0
19.03.2019 15:00:00 10,8 7,5 10,9 9,2 11 6 22 12 NW 1030,5 48 0,0
19.03.2019 14:00:00 10,9 8,1 11,4 9,1 9 5 16 9 NNW 1030,5 40 0,0
19.03.2019 13:00:00 10,9 8,8 10,4 9,0 8 5 15 8 NW 1030,5 20 0,0
19.03.2019 12:00:00 9,6 8,4 9,6 9,0 9 5 15 8 NW 1030,6 10 0,0
19.03.2019 11:00:00 9,1 8,5 9,4 9,0 6 3 15 8 NNW 1030,3 4,6 0,2
19.03.2019 10:00:00 8,8 8,5 8,5 9,0 6 4 9 5 WSW 1029,9 6 0,0
19.03.2019 09:00:00 7,8 7,7 7,2 9,0 5 3 9 5 SW 1029,4 3,7 0,0
19.03.2019 08:00:00 7,3 7,0 6,9 9,0 8 4 11 6 SW 1028,9 3,7 0,0
19.03.2019 07:00:00 7,2 6,9 6,7 9,0 9 5 13 7 SW 1028,4 10 0,0

tt = temperature
td = dewpoint
tt 5cm = temperature 5cm
tt -20cm = temperature -20cm
ff = wind speed
fx = gusts
dd = wind direction
ppp = reduced air pressure
vv = visibility
rr = precipitation

Next stations